Regional Weather Roundup
Issued by NWS

Home | Current Version | Previous Version | Graphics & Text | Print | Product List | Glossary On
Versions: 1 2 3 4 5 6 7 8 9 10 11 12 13 14 15 16 17 18 19 20 21 22 23 24 25 26 27 28 29 30 31 32 33 34 35 36 37 38 39 40 41 42 43 44 45 46 47 48 49 50
000
ASUS43 KDMX 300807
RWRIA

WEATHER ROUNDUP FOR IOWA
NATIONAL WEATHER SERVICE DES MOINES IA
300 AM CDT MON MAR 30 2015

NOTE: "FAIR" INDICATES FEW OR NO CLOUDS BELOW 12,000 FEET WITH NO
SIGNIFICANT WEATHER AND/OR OBSTRUCTIONS TO VISIBILITY.

* - THESE STATIONS ARE NOT NWS STATIONS...THUS NOT UNDER NWS
QUALITY CONTROL.  THEY ALSO DO NOT REPORT WEATHER SUCH
AS PRECIPITATION OR FOG.

IAZ001>003-012>014-020>022-031>034-043>046-300900-
   NORTHWEST IOWA

CITY           SKY/WX    TMP DP  RH WIND       PRES   REMARKS
CARROLL *      CLEAR     32  23  69 W5        30.09S WCI  27
CHEROKEE *     PTCLDY    28  27  93 S3        30.08S
DENISON *      CLEAR     30  25  80 CALM      30.09R
LE MARS *      CLEAR     34  25  69 CALM      30.08S
ORANGE CITY *  CLEAR     37  21  52 S5        30.06S WCI  34
SHELDON *      CLEAR     30  23  74 CALM      30.05S
SIOUX CITY     MOCLDY    34  23  64 SE3       30.08F
SPENCER        PTCLDY    32  25  75 MISG      30.06R
STORM LAKE *   CLEAR     36  23  60 SW9       30.08S WCI  29
$$

IAZ055>058-069>071-079>083-090>094-300900-
   SOUTHWEST IOWA

CITY           SKY/WX    TMP DP  RH WIND       PRES   REMARKS
ATLANTIC *     CLEAR     28  23  80 CALM      30.12S
AUDUBON *      CLEAR     27  21  80 CALM      30.11S
CLARINDA *     CLEAR     30  27  86 S3        30.15S
COUNCIL BLFS * CLEAR     41  25  52 SW7       30.12S
CRESTON *      CLEAR     37  25  60 W7        30.13R WCI  32
HARLAN  *      CLEAR     30  23  74 CALM      30.15R
LAMONI         PTCLDY    39  27  62 W6        30.12S WCI  35
RED OAK *      CLEAR     32  27  80 CALM      30.13S
SHENANDOAH *   CLEAR     36  25  64 CALM      30.15R
$$

IAZ047>049-059>061-072>074-084-300900-
   CENTRAL IOWA

CITY           SKY/WX    TMP DP  RH WIND       PRES   REMARKS
AMES           CLEAR     31  23  72 W3        30.07F
ANKENY *       CLEAR     34  25  69 CALM      30.09F
CHARITON *     CLOUDY    43  23  45 W6        30.11S
DES MOINES     CLEAR     39  23  52 SW5       30.10S
GRINNELL*      CLEAR     34  25  69 W5        30.08S WCI  30
KNOXVILLE *    CLEAR     39  23  52 W7        30.08S WCI  34
MARSHALLTOWN   CLEAR     34  25  69 SW7       30.05F WCI  28
PELLA *        CLEAR     39  30  70 W5        30.10S
PERRY *          N/A     32  25  74 SW10      30.09S WCI  24
$$

IAZ004>006-015-016-023>025-035-036-300900-
   NORTH CENTRAL IOWA

CITY           SKY/WX    TMP DP  RH WIND       PRES   REMARKS
ALGONA *       CLEAR     36  27  69 SW9       30.05S WCI  29
CLARION *      CLEAR     30  28  93 S6        30.05S WCI  24
ESTHERVILLE    CLEAR     32  24  72 SW12      30.03S WCI  23
FORT DODGE *   CLEAR     34  23  64 CALM      30.07F
MASON CITY     CLEAR     36  27  69 W10       30.03S WCI  28
FOREST CITY *  CLEAR     32  27  80 SW5       30.03R WCI  27
IOWA FALLS *     N/A     36  27  69 SW12      30.06S WCI  27
$$

IAZ007>011-017>019-026>030-037>042-050>054-066-300900-
   NORTHEAST IOWA

CITY           SKY/WX    TMP DP  RH WIND       PRES   REMARKS
CEDAR RAPIDS   CLEAR     33  27  78 W7        30.04F WCI  27
CHARLES CITY * CLEAR     37  28  70 W6        30.02S WCI  33
CLINTON *        N/A     32  27  80 W5        30.06S WCI  27
DECORAH *      MOCLDY    36  30  80 SW5       29.99F WCI  32
DUBUQUE        CLEAR     35  28  75 W8        30.01S WCI  29
MONTICELLO *   CLEAR     37  32  81 W7        30.03S WCI  32
OELWEIN *      CLEAR     34  28  80 W8        30.03S WCI  27
WATERLOO       CLEAR     32  26  78 CALM      30.03F
$$

IAZ064-065-067-068-078-300900-
   EAST CENTRAL IOWA

CITY           SKY/WX    TMP DP  RH WIND       PRES   REMARKS
DAVENPORT      CLEAR     31  26  82 W6        30.05S WCI  25
IOWA CITY      CLEAR     31  26  82 W7        30.08S WCI  24
MT. PLEASANT * CLEAR     37  27  65 W7        30.09S WCI  32
MUSCATINE *    CLEAR     36  28  75 CALM      30.07S
QUAD CITIES    CLEAR     37  28  70 W8        30.05R WCI  31
$$

IAZ062-063-075>077-085>089-095>099-300900-
   SOUTHEAST IOWA

CITY           SKY/WX    TMP DP  RH WIND       PRES   REMARKS
BURLINGTON     CLEAR     40  27  59 W3        30.08S
FAIRFIELD *    CLEAR     37  25  60 W8        30.09S WCI  31
FORT MADISON * CLEAR     39  28  65 W6        30.09F WCI  35
KEOKUK *       CLEAR     41  27  56 W6        30.09F
OSKALOOSA *      N/A     34  25  69 W8        30.09S WCI  27
CENTERVILLE *  CLEAR     36  27  69 SW7       30.12F WCI  30
OTTUMWA        CLEAR     35  24  64 W6        30.09S WCI  30
WASHINGTON *   CLEAR     36  28  75 W8        30.08R WCI  29
$$

ABBREVIATIONS USED IN REMARKS
   TC - TEMPERATURES IN CELSIUS
  WCI - WIND CHILL INDEX
   HX - HEAT INDEX
  VSB - VISIBILITY
$$




USA.gov is the U.S. government's official web portal to all federal, state and local government web resources and services.